Вернуться в каталог

STARLINK-5514

АктивенСвязьVLEO
NORAD 57248·PAYLOAD·🇺🇸 United States

Запущен Jul 7, 2023 с Vandenberg Space Force Base

Loading…

Ближайшие Пролёты (ближайшие 24 часа)

TLE

СвежийSource: CelesTrak SupGP

Эпоха: Sep 14, 2026, 21:45 UTC

1 57248C 23094AG  26257.90673611  .00027815  00000+0  10076-2 0  2574
2 57248  43.0023  30.9860 0002068 263.5631  30.2058 15.27559365    15

Отслеживайте STARLINK-5514 в реальном времени с AllMySat

Download on the App Store